Weather History for Cook, MN

Change the Weather History Date:

Saturday, September 28, 2013

  Actual Average Record
Temperature  
Mean Temperature 56 °F -  
Max Temperature 69 °F 57 °F 78 °F (2011)
Min Temperature 44 °F 35 °F 28 °F (2001)
Degree Days  
Heating Degree Days 8    
Growing Degree Days 6 (Base 50)    
Moisture  
Dew Point 53 °F    
Average Humidity 81    
Maximum Humidity 100    
Minimum Humidity 64    
Precipitation  
Precipitation 0.07 in - - ()
Sea Level Pressure  
Sea Level Pressure 29.68 in    
Wind  
Wind Speed 12 mph (South)    
Max Wind Speed 17 mph    
Max Gust Speed 28 mph    
Visibility 9 miles    
Events Rain    
Averages and records for this station are not official NWS values.
T = Trace of Precipitation, MM = Missing Value Source: NWS Daily Summary

Daily Weather History Graph

Daily Weather History Graph

Search for Another Location

Airport:

Trip Planner

Search our weather history database for the weather conditions in past years. The results will help you decide how hot, cold, wet, or windy it might be!

Date:

Astronomy

Sep. 28, 2013 Rise Set
Actual Time 7:06 AM CDT 6:55 PM CDT
Civil Twilight 6:35 AM CDT 7:26 PM CDT
Nautical Twilight 5:59 AM CDT 8:02 PM CDT
Astronomical Twilight 5:22 AM CDT 8:39 PM CDT
Moon 12:31 AM CDT (9/28) 3:35 PM CDT (9/28)
Length of Visible Light 12h 51m
Length of Day
11h 49m
Waning Crescent, 36% of the Moon is Illuminated
Sep 28
Waning Crescent
Oct 4
New
Oct 11
First Quarter
Oct 18
Full
Oct 26
Last Quarter

Hourly Weather History & Observations

Time (CDT) Temp. Windchill Dew Point Humidity Pressure Visibility Wind Dir Wind Speed Gust Speed Precip Events Conditions
12:16 AM 69.8 °F - 60.8 °F 73% 29.78 in 10.0 mi SSE 12.7 mph 19.6 mph N/A   Clear
12:36 AM 69.8 °F - 60.8 °F 73% 29.77 in 10.0 mi SSE 16.1 mph 23.0 mph N/A   Clear
12:57 AM 69.8 °F - 60.8 °F 73% 29.77 in 10.0 mi SSE 15.0 mph 23.0 mph N/A   Scattered Clouds
1:16 AM 69.8 °F - 60.8 °F 73% 29.77 in 10.0 mi South 12.7 mph 20.7 mph N/A   Scattered Clouds
1:36 AM 69.8 °F - 60.8 °F 73% 29.77 in 10.0 mi SSE 11.5 mph 20.7 mph N/A   Clear
1:57 AM 69.8 °F - 60.8 °F 73% 29.76 in 10.0 mi SSE 9.2 mph 21.9 mph N/A   Clear
2:16 AM 69.8 °F - 59.0 °F 68% 29.76 in 10.0 mi SSE 12.7 mph 17.3 mph N/A   Clear
2:36 AM 69.8 °F - 59.0 °F 68% 29.76 in 10.0 mi SSE 10.4 mph 18.4 mph N/A   Clear
2:57 AM 69.8 °F - 59.0 °F 68% 29.75 in 10.0 mi SSE 11.5 mph 20.7 mph N/A   Scattered Clouds
3:16 AM 69.8 °F - 59.0 °F 68% 29.74 in 10.0 mi SSE 11.5 mph 21.9 mph N/A   Scattered Clouds
3:36 AM 69.8 °F - 59.0 °F 68% 29.73 in 10.0 mi SSE 13.8 mph 19.6 mph N/A   Scattered Clouds
3:57 AM 69.8 °F - 57.2 °F 64% 29.72 in 10.0 mi SSE 11.5 mph 21.9 mph N/A   Scattered Clouds
4:16 AM 69.8 °F - 57.2 °F 64% 29.72 in 10.0 mi SSE 11.5 mph 19.6 mph N/A   Mostly Cloudy
4:36 AM 68.0 °F - 57.2 °F 68% 29.71 in 10.0 mi SSE 10.4 mph 17.3 mph N/A   Scattered Clouds
4:57 AM 68.0 °F - 57.2 °F 68% 29.71 in 10.0 mi SSE 9.2 mph 18.4 mph N/A   Mostly Cloudy
5:16 AM 68.0 °F - 57.2 °F 68% 29.71 in 10.0 mi SSE 16.1 mph 20.7 mph N/A   Mostly Cloudy
5:36 AM 66.2 °F - 57.2 °F 73% 29.70 in 10.0 mi SSE 11.5 mph 20.7 mph N/A   Scattered Clouds
5:57 AM 66.2 °F - 55.4 °F 68% 29.69 in 10.0 mi SSE 10.4 mph 17.3 mph N/A   Clear
6:16 AM 66.2 °F - 55.4 °F 68% 29.69 in 10.0 mi SSE 9.2 mph 19.6 mph N/A   Clear
6:36 AM 66.2 °F - 55.4 °F 68% 29.69 in 10.0 mi SSE 10.4 mph 17.3 mph N/A   Scattered Clouds
6:57 AM 64.4 °F - 55.4 °F 73% 29.68 in 10.0 mi SE 11.5 mph 20.7 mph N/A   Clear
7:16 AM 64.4 °F - 55.4 °F 73% 29.66 in 10.0 mi SE 11.5 mph 19.6 mph N/A   Clear
7:36 AM 64.4 °F - 55.4 °F 73% 29.66 in 10.0 mi SSE 11.5 mph 18.4 mph N/A   Clear
7:57 AM 64.4 °F - 55.4 °F 73% 29.65 in 10.0 mi SSE 13.8 mph 19.6 mph N/A   Scattered Clouds
8:16 AM 64.4 °F - 55.4 °F 73% 29.64 in 10.0 mi SSE 10.4 mph 21.9 mph N/A   Clear
8:36 AM 64.4 °F - 55.4 °F 73% 29.63 in 10.0 mi SSE 11.5 mph 20.7 mph N/A   Clear
8:57 AM 64.4 °F - 55.4 °F 73% 29.62 in 10.0 mi SSE 15.0 mph 23.0 mph N/A   Clear
9:16 AM 66.2 °F - 55.4 °F 68% 29.61 in 10.0 mi SSE 13.8 mph 23.0 mph N/A   Scattered Clouds
9:36 AM 66.2 °F - 55.4 °F 68% 29.60 in 10.0 mi SE 15.0 mph 23.0 mph N/A   Scattered Clouds
9:56 AM 66.2 °F - 55.4 °F 68% 29.59 in 10.0 mi SSE 13.8 mph 26.5 mph N/A   Mostly Cloudy
10:17 AM 66.2 °F - 55.4 °F 68% 29.58 in 10.0 mi SE 11.5 mph 23.0 mph N/A   Mostly Cloudy
10:36 AM 66.2 °F - 55.4 °F 68% 29.57 in 10.0 mi South 15.0 mph 27.6 mph N/A   Mostly Cloudy
10:56 AM 64.4 °F - 57.2 °F 77% 29.56 in 10.0 mi SSE 13.8 mph 25.3 mph N/A Rain Rain
11:17 AM 62.6 °F - 57.2 °F 82% 29.56 in 7.0 mi SSE 10.4 mph 16.1 mph 0.03 in Rain Light Rain
11:36 AM 62.6 °F - 59.0 °F 88% 29.54 in 10.0 mi SE 10.4 mph 17.3 mph 0.03 in Rain Light Rain
11:56 AM 62.6 °F - 59.0 °F 88% 29.54 in 7.0 mi SSE 10.4 mph 18.4 mph N/A Rain Light Rain
12:16 PM 60.8 °F - 59.0 °F 94% 29.52 in 5.0 mi SSE 12.7 mph 24.2 mph N/A Rain Light Rain
12:37 PM 60.8 °F - 59.0 °F 94% 29.52 in 10.0 mi SSE 11.5 mph 23.0 mph 0.01 in Rain Light Rain
12:56 PM 60.8 °F - 59.0 °F 94% 29.50 in 7.0 mi SSE 13.8 mph 19.6 mph N/A Rain Light Rain
1:16 PM 60.8 °F - 59.0 °F 94% 29.50 in 4.0 mi SSE 13.8 mph 24.2 mph 0.01 in   Drizzle
1:37 PM 60.8 °F - 60.8 °F 100% 29.50 in 3.0 mi South 13.8 mph 17.3 mph 0.01 in   Drizzle
1:56 PM 57.2 °F - 55.4 °F 94% 29.52 in 3.0 mi SW 11.5 mph 23.0 mph N/A Rain Heavy Rain
2:17 PM 55.4 °F - 53.6 °F 94% 29.54 in 3.0 mi WSW 15.0 mph 24.2 mph 0.01 in Rain Rain
2:36 PM 53.6 °F - 51.8 °F 94% 29.55 in 5.0 mi WSW 13.8 mph 20.7 mph 0.02 in Rain Light Rain
2:57 PM 53.6 °F - 51.8 °F 94% 29.56 in 10.0 mi WSW 11.5 mph 20.7 mph N/A Rain Light Rain
3:16 PM 53.6 °F - 51.8 °F 94% 29.57 in 10.0 mi WSW 12.7 mph 18.4 mph N/A   Overcast
3:37 PM 51.8 °F - 50.0 °F 94% 29.60 in 3.0 mi WSW 15.0 mph 20.7 mph N/A Rain Rain
3:56 PM 51.8 °F - 50.0 °F 94% 29.62 in 5.0 mi WSW 11.5 mph 17.3 mph N/A Rain Light Rain
4:16 PM 51.8 °F - 50.0 °F 94% 29.62 in 10.0 mi WSW 17.3 mph 24.2 mph N/A   Overcast
4:36 PM 53.6 °F - 48.2 °F 82% 29.64 in 10.0 mi West 12.7 mph 20.7 mph N/A   Mostly Cloudy
4:57 PM 53.6 °F - 48.2 °F 82% 29.64 in 10.0 mi WSW 15.0 mph 20.7 mph N/A   Mostly Cloudy
5:16 PM 51.8 °F - 48.2 °F 88% 29.66 in 4.0 mi WSW 13.8 mph - N/A Rain Heavy Rain
5:37 PM 51.8 °F - 48.2 °F 88% 29.68 in 4.0 mi WSW 13.8 mph 21.9 mph N/A   Heavy Drizzle
5:56 PM 51.8 °F - 48.2 °F 88% 29.69 in 7.0 mi WSW 9.2 mph - N/A   Overcast
6:16 PM 51.8 °F - 48.2 °F 88% 29.70 in 10.0 mi WSW 11.5 mph 16.1 mph N/A   Overcast
6:37 PM 50.0 °F - 46.4 °F 87% 29.71 in 10.0 mi WSW 11.5 mph 19.6 mph N/A   Light Drizzle
6:56 PM 50.0 °F - 46.4 °F 87% 29.71 in 10.0 mi WSW 10.4 mph - N/A   Overcast
7:16 PM 50.0 °F - 46.4 °F 87% 29.72 in 10.0 mi WSW 8.1 mph - N/A   Overcast
7:37 PM 50.0 °F - 46.4 °F 87% 29.73 in 10.0 mi WSW 10.4 mph 17.3 mph N/A   Overcast
7:56 PM 48.2 °F - 46.4 °F 93% 29.75 in 10.0 mi WSW 10.4 mph 18.4 mph N/A   Overcast
8:16 PM 48.2 °F - 44.6 °F 87% 29.75 in 10.0 mi WSW 12.7 mph 19.6 mph N/A   Mostly Cloudy
8:36 PM 48.2 °F - 44.6 °F 87% 29.77 in 10.0 mi West 13.8 mph 19.6 mph N/A   Mostly Cloudy
8:56 PM 48.2 °F - 42.8 °F 82% 29.78 in 10.0 mi West 10.4 mph 19.6 mph N/A   Scattered Clouds
9:17 PM 46.4 °F 40.7 °F 41.0 °F 81% 29.79 in 10.0 mi West 12.7 mph 18.4 mph N/A   Clear
9:36 PM 46.4 °F 41.9 °F 42.8 °F 87% 29.80 in 10.0 mi WSW 9.2 mph - N/A   Scattered Clouds
9:56 PM 46.4 °F 42.4 °F 42.8 °F 87% 29.80 in 10.0 mi WSW 8.1 mph - N/A   Overcast
10:16 PM 46.4 °F 42.4 °F 42.8 °F 87% 29.81 in 10.0 mi WSW 8.1 mph - N/A   Mostly Cloudy
10:37 PM 44.6 °F 41.4 °F 42.8 °F 93% 29.82 in 10.0 mi WSW 5.8 mph - N/A   Mostly Cloudy
10:56 PM 44.6 °F 43.1 °F 42.8 °F 93% 29.82 in 10.0 mi WSW 3.5 mph - N/A   Overcast
11:17 PM 44.6 °F 42.2 °F 42.8 °F 93% 29.83 in 10.0 mi SW 4.6 mph - N/A   Mostly Cloudy
11:36 PM 44.6 °F 43.1 °F 42.8 °F 93% 29.83 in 10.0 mi SW 3.5 mph - N/A   Scattered Clouds
11:56 PM 44.6 °F - 42.8 °F 93% 29.84 in 10.0 mi Calm Calm - N/A   Mostly Cloudy